RH
20 21 22 22 24 27 28 29 29 29 29 28 28 29 30 29 26 33 72 29 28 29 29 32 49 83 86 91 93 96 88 82 85 83 41 92 90 89 87 82 65 43 40
22 22 23 24 28 29 30 30 31 32 32 31 31 30 30 31 30 28 44 76 39 41 38 37 36 33 32 64 82 90 91 81 58 34 25 56 86 87 86 94 95 88 75
23 24 26 29 33 32 31 32 33 33 33 32 32 31 30 31 32 31 35 52 76 46 41 38 38 39 35 33 34 37 34 32 27 21 18 27 72 84 84 81 84 85 84
26 28 31 35 34 31 32 32 32 34 35 33 32 32 33 33 31 33 37 54 66 65 57 47 44 40 34 29 25 25 28 24 20 20 24 14 17 74 80 82 82 80 82
30 32 35 37 34 34 33 33 35 36 36 36 35 35 35 33 33 36 42 47 53 52 56 53 50 48 47 47 47 45 47 52 39 34 33 31 20 14 66 68 81 82 81
34 35 38 37 35 34 34 36 37 37 35 34 32 29 32 33 35 40 43 44 48 54 58 60 67 70 60 51 50 51 52 50 49 49 46 42 36 20 17 78 84 83 86
38 37 41 38 37 36 36 38 39 37 34 28 24 42 32 33 41 44 42 39 40 46 51 54 62 63 60 53 49 50 52 51 52 85 72 52 49 43 31 24 86 84 93
37 40 41 41 39 37 40 43 38 35 26 23 23 42 43 47 52 35 27 40 43 43 51 52 53 42 27 27 28 24 27 35 44 54 88 92 92 94 81 87 90 94 93
40 40 40 41 39 42 47 43 36 25 26 22 15 18 38 39 44 44 28 22 35 42 30 13 11 10 11 13 15 25 18 23 35 90 95 96 98 99 100 96 93 90 91
38 38 41 42 42 48 50 42 24 22 18 13 10 8 10 15 42 34 40 47 18 15 11 10 9 10 10 14 21 28 31 33 41 50 96 97 96 98 100 98 97 95 90
37 39 41 43 49 53 50 28 22 16 10 8 9 10 11 13 16 58 40 36 43 46 38 15 12 15 12 14 23 30 41 45 40 35 39 92 95 96 98 95 95 96 95
37 40 42 47 51 52 37 21 16 9 9 10 12 12 14 32 43 57 51 45 44 40 44 32 32 27 22 28 33 28 24 22 14 18 26 72 94 95 95 98 99 95 87
39 40 45 49 53 46 22 16 10 10 12 14 16 32 37 36 33 27 45 51 44 44 47 53 28 15 23 25 28 17 13 12 12 14 20 75 93 96 99 97 97 99 99
40 43 48 52 49 22 18 10 11 14 16 25 39 40 37 34 28 20 24 52 48 42 37 39 53 23 19 18 15 16 13 13 14 16 18 20 24 26 30 28 37 96 100
42 46 50 49 24 19 11 11 16 18 34 41 41 39 37 35 30 22 24 26 53 45 34 34 53 56 34 18 13 15 15 13 13 18 21 22 27 26 30 33 36 31 42
46 48 46 24 21 13 12 17 20 35 43 43 43 40 40 38 32 29 29 22 26 52 52 40 47 55 52 15 14 15 18 16 16 20 24 27 30 32 34 43 34 48 52
47 41 24 22 15 13 17 22 23 38 42 47 44 41 40 36 33 29 21 20 26 41 66 55 54 56 42 18 18 23 18 19 18 16 21 28 36 40 42 44 41 37 72
38 26 24 19 15 18 23 26 28 45 52 48 44 43 42 38 26 19 19 21 27 37 65 65 57 57 56 29 42 32 23 20 18 15 17 22 28 29 36 42 43 43 41
29 28 25 19 18 21 25 33 54 54 51 48 47 46 42 31 24 22 24 34 37 50 52 66 68 69 50 22 49 59 67 71 66 43 21 18 19 26 31 37 42 47 47
30 30 26 22 20 23 31 50 53 53 51 47 42 40 34 27 25 25 26 38 50 64 70 72 77 82 82 43 71 75 81 78 78 80 81 55 33 30 34 36 44 49 51
32 31 27 23 22 24 34 51 54 50 46 43 38 34 31 29 26 25 28 32 63 72 77 78 80 83 85 81 75 76 86 83 82 86 87 89 90 90 85 68 36 42 53
33 30 24 22 30 46 53 52 50 45 38 35 36 32 31 26 24 27 30 33 48 90 89 89 89 82 78 81 82 84 86 88 84 83 86 90 96 89 87 91 93 78 60
29 24 27 42 51 50 48 46 38 26 20 22 23 25 27 34 38 44 44 45 55 57 87 86 85 80 77 78 82 86 88 93 98 91 98 99 97 86 85 95 96 94 94
27 42 48 47 48 46 30 19 18 20 25 28 32 35 46 44 51 52 74 89 89 90 86 85 88 85 87 88 92 92 94 94 96 93 96 98 87 84 85 88 94 96 67
45 47 49 38 22 18 20 26 30 33 35 43 60 74 88 81 59 60 98 96 93 88 92 95 79 72 80 80 83 98 96 100 90 92 90 90 88 90 97 95 94 96 97
45 27 18 17 23 28 30 32 36 37 56 79 88 93 95 98 97 96 100 95 90 88 91 90 90 94 95 96 88 91 90 91 82 83 89 99 98 95 96 90 92 98 98
Wind_Speed
2 4 6 8 9 10 11 13 14 14 14 13 13 13 12 12 10 8 5 9 9 9 8 8 10 13 11 9 10 13 13 16 17 20 10 8 8 5 3 6 11 14 16
2 4 6 8 10 11 13 13 13 14 14 14 14 14 13 12 11 9 7 7 9 9 8 9 9 11 10 14 16 15 16 20 19 15 10 12 11 9 9 4 1 2 5
4 5 7 8 10 12 12 13 14 14 14 14 14 14 13 13 12 10 8 6 7 9 8 9 9 10 11 11 12 13 15 15 14 13 11 10 13 13 12 12 12 10 10
4 6 7 9 11 11 12 14 14 14 14 14 14 13 13 11 10 8 7 6 6 6 8 8 9 10 10 10 11 12 12 14 15 14 13 11 12 17 17 15 16 16 15
6 7 8 9 10 12 13 13 13 14 13 12 12 12 11 9 8 6 6 7 8 8 8 11 11 12 12 12 12 13 13 14 15 15 15 14 13 14 20 20 18 19 19
7 8 9 9 10 12 12 12 12 12 12 13 12 12 9 8 7 5 6 8 10 11 12 13 14 14 15 15 16 17 17 17 17 17 17 16 15 14 14 19 18 16 17
8 9 9 10 10 11 10 10 9 10 11 12 12 8 7 8 7 7 11 12 12 11 13 14 14 16 18 18 19 19 20 20 19 18 17 17 16 16 15 14 20 17 13
9 10 10 10 10 10 9 8 9 9 10 10 11 8 5 5 4 14 12 8 10 12 12 15 17 22 26 26 26 24 23 22 20 18 17 17 15 14 14 13 12 15 16
9 10 10 10 10 8 7 7 8 7 7 10 10 6 4 4 14 8 11 12 12 13 16 21 21 20 22 21 20 18 20 18 17 14 15 16 16 15 14 14 13 13 14
9 10 10 10 9 8 7 7 6 8 9 8 10 8 6 7 4 8 8 10 14 18 15 16 20 18 19 18 17 17 17 16 16 17 14 14 14 16 17 15 15 15 16
10 10 10 10 9 8 8 7 7 8 8 7 7 8 9 10 8 6 15 12 17 14 18 18 16 15 14 16 16 16 15 15 17 18 18 16 16 16 15 16 17 18 18
10 10 10 9 8 8 7 7 8 7 6 7 7 8 9 7 8 9 14 17 19 15 17 17 16 13 13 9 13 16 19 23 25 22 21 18 15 16 18 17 17 17 19
10 10 9 9 9 8 7 8 7 6 6 7 7 9 12 16 17 18 17 19 19 19 16 17 13 16 15 15 17 22 24 23 22 21 21 18 16 17 18 19 24 16 16
10 10 9 9 9 8 8 7 6 6 7 6 8 12 17 19 20 20 18 16 21 19 18 15 16 17 18 20 24 25 23 22 21 20 20 21 22 22 22 22 24 30 23
10 9 9 9 9 9 8 8 7 7 7 9 12 17 20 22 22 21 21 21 18 21 21 12 14 15 19 24 24 23 21 19 20 19 19 20 19 19 20 20 22 24 30
9 9 9 9 9 9 9 9 9 9 10 13 17 21 23 25 24 23 24 24 22 20 24 17 18 20 23 24 24 22 21 19 18 18 18 17 18 18 17 17 20 21 23
8 8 9 9 9 9 10 10 11 13 15 18 21 24 25 25 25 26 25 25 25 22 24 25 22 22 24 25 22 22 23 22 20 18 18 18 17 17 18 18 18 19 19
7 8 8 9 10 11 11 12 14 16 19 22 24 26 28 27 27 27 26 27 27 26 24 28 24 24 23 23 23 23 22 21 20 20 17 17 18 19 20 20 20 20 21
7 8 9 10 11 12 14 14 17 21 24 27 28 28 29 28 29 28 28 29 29 27 27 27 28 26 26 25 23 21 18 18 19 20 19 18 17 17 19 20 21 21 21
8 9 10 12 13 14 15 18 22 26 29 30 31 30 29 30 31 31 32 31 30 28 27 27 27 24 23 23 20 19 17 15 16 16 18 22 22 20 20 20 21 22 22
8 10 11 13 14 15 18 22 26 30 31 33 32 31 32 34 35 35 36 36 31 29 29 28 28 24 23 20 18 17 19 18 18 18 18 15 14 16 19 23 23 21 21
9 10 11 13 15 18 22 25 29 32 33 32 33 33 33 35 35 34 34 34 34 31 31 29 29 26 25 23 21 19 19 21 23 17 18 20 19 21 22 21 23 24 21
9 10 12 16 19 23 26 29 31 33 34 32 33 33 33 31 31 30 30 31 32 31 32 34 34 31 29 25 22 22 22 23 25 23 24 32 22 27 23 23 24 21 24
10 13 17 21 25 27 28 30 31 32 32 31 30 30 29 29 29 29 27 27 26 26 26 26 28 30 27 25 23 24 25 27 28 30 23 30 27 30 24 23 22 25 25
15 19 22 25 27 28 28 29 29 28 28 26 25 23 23 25 27 27 25 27 27 26 25 27 27 27 28 26 25 24 26 25 31 28 25 29 31 30 24 23 21 20 19
20 23 25 25 26 27 25 24 23 24 24 23 23 23 23 24 25 26 25 26 28 27 26 25 25 24 23 21 21 21 24 28 32 36 22 16 20 21 24 21 15 9 16
Wind_Direction
5 2 356 355 354 354 353 353 354 351 348 345 344 344 341 336 329 318 308 307 303 299 289 268 249 247 248 253 263 276 279 272 274 287 282 228 235 232 312 284 270 262 257
333 337 342 344 344 346 349 349 347 346 346 343 339 334 332 328 323 312 300 301 305 305 297 286 276 266 263 247 250 260 270 276 278 284 296 243 230 229 237 227 221 254 265
315 323 330 332 340 345 344 343 344 346 345 341 336 331 327 321 315 305 297 282 303 307 301 294 292 291 287 276 268 267 273 286 295 295 290 266 242 233 239 246 257 254 245
301 309 319 333 339 338 341 343 344 345 346 346 342 336 330 324 319 304 298 296 292 300 309 303 303 303 303 298 292 290 291 289 293 295 293 277 257 238 239 240 249 249 249
289 299 322 328 330 337 341 343 343 346 350 353 349 343 335 332 330 320 312 308 296 296 298 302 302 302 304 304 302 299 296 295 297 294 292 289 276 254 239 240 240 248 251
285 308 313 317 328 334 339 344 346 346 348 353 354 348 336 335 330 318 315 312 297 288 288 292 296 296 297 298 302 299 296 298 296 294 293 290 284 274 258 238 237 243 253
292 299 300 312 324 331 337 341 344 350 348 350 1 346 336 326 315 313 313 303 300 293 291 293 294 297 297 296 295 295 291 291 290 288 289 290 288 280 271 259 240 238 256
284 287 296 306 318 326 330 336 343 344 349 357 360 356 336 310 328 308 312 310 307 309 312 308 305 303 300 298 297 294 288 285 284 281 284 289 292 290 281 273 267 258 255
278 284 291 300 307 310 316 325 331 342 346 346 353 3 334 318 326 310 314 311 309 303 308 305 303 302 299 297 297 294 289 287 283 302 298 290 287 287 284 279 270 258 256
277 283 288 291 294 298 302 315 325 334 338 339 342 347 339 313 321 314 316 309 310 309 313 316 315 314 307 302 298 292 290 288 287 287 301 296 287 281 282 278 272 265 257
277 279 280 281 280 286 299 310 319 324 331 336 346 346 341 332 321 292 304 309 312 308 313 323 320 317 312 302 298 297 297 296 297 289 283 292 290 286 286 275 269 263 256
276 275 273 271 276 285 292 300 308 315 327 337 341 342 341 329 314 298 297 303 307 314 310 312 316 305 304 305 296 297 301 299 300 293 287 285 288 280 273 275 270 259 261
274 271 268 270 274 279 284 292 301 312 323 326 331 339 339 333 320 307 299 299 299 303 304 312 305 315 304 300 293 301 303 299 296 292 287 288 283 275 276 271 244 254 254
267 266 267 271 273 274 283 289 294 302 306 316 329 332 330 326 318 308 297 295 302 303 298 298 296 305 306 303 307 307 307 306 302 293 287 283 281 280 278 273 256 243 236
265 266 269 269 269 277 279 279 283 289 301 314 319 322 324 321 312 303 298 296 288 294 298 293 293 295 302 306 307 307 307 306 305 301 297 292 287 283 282 276 269 261 255
266 267 265 265 270 273 272 276 282 286 298 309 315 319 320 314 307 302 299 296 287 278 279 284 284 286 293 302 303 304 301 303 303 300 297 295 293 293 286 281 275 273 266
268 265 263 269 272 270 272 279 280 287 299 306 312 314 316 311 307 302 298 293 287 280 274 285 283 289 292 299 297 296 300 302 301 298 294 290 286 286 288 288 286 279 277
265 265 272 274 269 270 277 280 283 292 302 309 310 310 311 305 299 298 294 290 286 283 273 279 284 285 286 292 291 293 297 296 296 296 294 290 291 291 286 282 283 282 278
268 272 272 270 271 274 278 282 291 301 306 307 308 308 306 301 297 296 292 288 286 282 276 273 279 281 283 288 289 289 289 290 291 296 296 294 293 290 285 282 283 282 279
269 273 277 276 275 278 283 291 301 304 304 305 305 304 301 297 296 295 291 286 282 276 273 272 274 276 279 284 281 284 287 284 286 287 289 298 300 293 283 281 278 276 279
272 277 278 281 283 288 295 299 300 302 303 302 301 300 300 298 296 293 291 288 280 273 270 270 271 274 277 278 273 278 282 290 289 291 290 288 288 289 292 296 285 273 276
276 284 287 289 292 296 299 299 301 302 303 302 301 302 301 302 303 301 296 291 283 272 269 270 271 271 275 276 277 278 282 288 292 289 287 286 292 289 292 289 275 274 278
295 293 292 295 298 299 302 302 301 300 301 303 304 305 306 306 307 305 302 296 289 281 268 265 264 267 273 273 276 278 279 281 283 286 284 290 291 290 290 286 288 287 280
294 297 299 301 302 303 304 304 304 303 303 305 305 306 306 308 309 310 306 298 290 284 275 269 264 267 266 270 270 273 278 281 282 287 294 286 294 289 290 285 277 277 286
302 303 304 306 307 309 309 308 308 309 309 308 308 307 305 308 313 314 306 300 295 287 284 285 281 272 270 269 270 275 278 286 286 283 282 284 286 288 289 286 283 283 287
307 308 310 312 312 313 315 314 314 312 311 310 311 311 311 311 315 313 306 298 290 287 286 283 276 278 279 272 268 269 279 282 287 288 292 280 290 292 295 292 271 255 292